When you browse on this site, cookies collect data to enhance your experience and personalize the content and advertising you see.
Visit our Privacy Policy to learn more. By continuing to use the site, you agree to this use of cookies and data.
  • en France
  • Liste des pays
  • À 7 jours
  • Température de l'eau
  • Carte météo
  • Widgets météo
  • user-avatar
    Se connecter

    Météo par heure à Setif

    Ce jour, 18 Février, Mardi

    Heure Température Précipitation Vent Pression Humidité
    00:00 +8°C° 0 mm 0 m/s 677 mmHg 84%
    01:00 +9°C° 0 mm 1 m/s 677 mmHg 84%
    02:00 +8°C° 0 mm 1 m/s 676 mmHg 85%
    03:00 +8°C° 0 mm 1 m/s 676 mmHg 86%
    04:00 +8°C° 0 mm 1 m/s 676 mmHg 87%
    05:00 +7°C° 0 mm 1 m/s 676 mmHg 88%
    06:00 +7°C° 0 mm 1 m/s 676 mmHg 89%
    07:00 +8°C° 0 mm 1 m/s 677 mmHg 85%
    08:00 +10°C° 0 mm 1 m/s 678 mmHg 80%
    09:00 +11°C° 0 mm 1 m/s 679 mmHg 76%
    10:00 +12°C° 0 mm 2 m/s 679 mmHg 71%
    11:00 +13°C° 0 mm 2 m/s 679 mmHg 66%
    12:00 +14°C° 0 mm 2 m/s 679 mmHg 62%
    13:00 +14°C° 0 mm 2 m/s 679 mmHg 63%
    14:00 +13°C° 0 mm 3 m/s 678 mmHg 63%
    15:00 +13°C° 0 mm 3 m/s 678 mmHg 64%
    16:00 +12°C° 0 mm 3 m/s 678 mmHg 70%
    17:00 +10°C° 0 mm 3 m/s 678 mmHg 76%
    18:00 +9°C° 0 mm 3 m/s 678 mmHg 82%
    19:00 +9°C° 0 mm 2 m/s 678 mmHg 85%
    20:00 +8°C° 0 mm 2 m/s 678 mmHg 87%
    21:00 +9°C° 0 mm 1 m/s 678 mmHg 89%
    22:00 +8°C° 0 mm 1 m/s 678 mmHg 90%
    23:00 +8°C° 0 mm 1 m/s 678 mmHg 91%

    Demain, 19 Février, Mercredi

    Heure Température Précipitation Vent Pression Humidité
    00:00 +8°C° 0 mm 1 m/s 678 mmHg 92%
    01:00 +7°C° 0 mm 1 m/s 678 mmHg 92%
    02:00 +7°C° 0 mm 1 m/s 677 mmHg 93%
    03:00 +6°C° 0 mm 2 m/s 677 mmHg 94%
    04:00 +6°C° 0 mm 2 m/s 677 mmHg 93%
    05:00 +6°C° 0 mm 2 m/s 677 mmHg 91%
    06:00 +7°C° 0 mm 1 m/s 677 mmHg 89%
    07:00 +7°C° 0 mm 2 m/s 678 mmHg 86%
    08:00 +7°C° 0 mm 2 m/s 678 mmHg 83%
    09:00 +7°C° 0 mm 2 m/s 679 mmHg 79%
    10:00 +8°C° 0 mm 2 m/s 679 mmHg 74%
    11:00 +9°C° 0 mm 2 m/s 679 mmHg 69%
    12:00 +10°C° 0 mm 2 m/s 679 mmHg 64%
    13:00 +10°C° 0 mm 2 m/s 679 mmHg 64%
    14:00 +10°C° 0 mm 3 m/s 678 mmHg 64%
    15:00 +10°C° 0 mm 3 m/s 678 mmHg 64%
    16:00 +9°C° 0 mm 3 m/s 678 mmHg 69%
    17:00 +8°C° 0 mm 3 m/s 677 mmHg 75%
    18:00 +7°C° 0 mm 3 m/s 677 mmHg 80%
    19:00 +6°C° 0 mm 2 m/s 677 mmHg 83%
    20:00 +7°C° 0 mm 1 m/s 677 mmHg 87%
    21:00 +6°C° 0 mm 1 m/s 677 mmHg 90%
    22:00 +6°C° 0 mm 1 m/s 677 mmHg 90%
    23:00 +5°C° 0 mm 1 m/s 677 mmHg 90%

    Après-demain, 20 Février, Jeudi

    Heure Température Précipitation Vent Pression Humidité
    00:00 +5°C° 0 mm 1 m/s 676 mmHg 90%
    01:00 +5°C° 0 mm 1 m/s 676 mmHg 90%
    02:00 +5°C° 0 mm 1 m/s 675 mmHg 89%
    03:00 +4°C° 0 mm 1 m/s 675 mmHg 88%
    04:00 +4°C° 0 mm 1 m/s 675 mmHg 87%
    05:00 +4°C° 0 mm 1 m/s 674 mmHg 86%
    06:00 +4°C° 0 mm 1 m/s 674 mmHg 85%
    07:00 +6°C° 0 mm 1 m/s 675 mmHg 77%
    08:00 +8°C° 0 mm 1 m/s 676 mmHg 68%
    09:00 +11°C° 0 mm 1 m/s 676 mmHg 59%
    10:00 +12°C° 0 mm 1 m/s 676 mmHg 53%
    11:00 +14°C° 0 mm 2 m/s 676 mmHg 48%
    12:00 +15°C° 0 mm 2 m/s 676 mmHg 42%
    13:00 +15°C° 0 mm 2 m/s 676 mmHg 42%
    14:00 +16°C° 0 mm 2 m/s 676 mmHg 41%
    15:00 +16°C° 0 mm 3 m/s 675 mmHg 40%
    16:00 +14°C° 0 mm 2 m/s 675 mmHg 48%
    17:00 +13°C° 0 mm 2 m/s 675 mmHg 56%
    18:00 +10°C° 0 mm 2 m/s 674 mmHg 64%
    19:00 +10°C° 0 mm 2 m/s 674 mmHg 66%
    20:00 +9°C° 0 mm 2 m/s 675 mmHg 68%
    21:00 +9°C° 0 mm 1 m/s 675 mmHg 69%
    22:00 +9°C° 0 mm 1 m/s 675 mmHg 70%
    23:00 +9°C° 0 mm 1 m/s 675 mmHg 71%

    21 Février, Vendredi

    Heure Température Précipitation Vent Pression Humidité
    00:00 +8°C° 0 mm 1 m/s 674 mmHg 72%
    01:00 +8°C° 0 mm 1 m/s 674 mmHg 73%
    02:00 +8°C° 0 mm 1 m/s 674 mmHg 74%
    03:00 +7°C° 0 mm 1 m/s 674 mmHg 75%
    04:00 +7°C° 0 mm 1 m/s 674 mmHg 76%
    05:00 +7°C° 0 mm 1 m/s 674 mmHg 77%
    06:00 +7°C° 0 mm 1 m/s 674 mmHg 78%
    13:00 +16°C° 0 mm 1 m/s 678 mmHg 41%
    14:00 +16°C° 0 mm 1 m/s 678 mmHg 40%
    15:00 +16°C° 0 mm 1 m/s 678 mmHg 40%
    16:00 +15°C° 0 mm 2 m/s 677 mmHg 49%
    17:00 +13°C° 0 mm 2 m/s 677 mmHg 59%
    18:00 +12°C° 0 mm 2 m/s 677 mmHg 68%
    19:00 +10°C° 0 mm 2 m/s 677 mmHg 73%
    20:00 +10°C° 0 mm 1 m/s 677 mmHg 77%
    21:00 +9°C° 0 mm 1 m/s 678 mmHg 82%
    22:00 +9°C° 0 mm 1 m/s 678 mmHg 83%
    23:00 +9°C° 0 mm 1 m/s 678 mmHg 84%

    22 Février, Samedi

    Heure Température Précipitation Vent Pression Humidité
    00:00 +7°C° 0 mm 0 m/s 678 mmHg 86%
    01:00 +7°C° 0 mm 0 m/s 678 mmHg 87%
    02:00 +7°C° 0 mm 0 m/s 678 mmHg 88%
    03:00 +6°C° 0 mm 0 m/s 677 mmHg 89%
    04:00 +6°C° 0 mm 0 m/s 677 mmHg 89%
    05:00 +6°C° 0 mm 0 m/s 678 mmHg 89%
    06:00 +5°C° 0 mm 0 m/s 678 mmHg 89%
    07:00 +7°C° 0 mm 0 m/s 678 mmHg 81%
    08:00 +10°C° 0 mm 1 m/s 679 mmHg 74%
    09:00 +12°C° 0 mm 1 m/s 680 mmHg 66%
    10:00 +13°C° 0 mm 1 m/s 681 mmHg 60%
    11:00 +14°C° 0 mm 1 m/s 681 mmHg 54%
    12:00 +15°C° 0 mm 1 m/s 681 mmHg 48%
    13:00 +16°C° 0 mm 1 m/s 681 mmHg 47%
    14:00 +16°C° 0 mm 2 m/s 681 mmHg 46%
    15:00 +16°C° 0 mm 2 m/s 681 mmHg 45%
    16:00 +15°C° 0 mm 2 m/s 681 mmHg 55%
    17:00 +13°C° 0 mm 2 m/s 681 mmHg 65%
    18:00 +10°C° 0 mm 2 m/s 680 mmHg 75%
    19:00 +9°C° 0 mm 2 m/s 680 mmHg 79%
    20:00 +10°C° 0 mm 1 m/s 680 mmHg 82%
    21:00 +9°C° 0 mm 1 m/s 681 mmHg 86%
    22:00 +9°C° 0 mm 1 m/s 680 mmHg 86%
    23:00 +8°C° 0 mm 1 m/s 680 mmHg 85%

    23 Février, Dimanche

    Heure Température Précipitation Vent Pression Humidité
    00:00 +7°C° 0 mm 0 m/s 680 mmHg 85%
    01:00 +7°C° 0 mm 0 m/s 680 mmHg 86%
    02:00 +6°C° 0 mm 0 m/s 680 mmHg 86%
    03:00 +6°C° 0 mm 0 m/s 679 mmHg 86%
    04:00 +6°C° 0 mm 0 m/s 679 mmHg 86%
    05:00 +6°C° 0 mm 0 m/s 679 mmHg 85%
    06:00 +5°C° 0 mm 0 m/s 679 mmHg 85%
    07:00 +8°C° 0 mm 0 m/s 680 mmHg 76%
    08:00 +11°C° 0 mm 1 m/s 681 mmHg 67%
    09:00 +13°C° 0 mm 1 m/s 682 mmHg 58%
    10:00 +14°C° 0 mm 1 m/s 682 mmHg 52%
    11:00 +15°C° 0 mm 1 m/s 683 mmHg 45%
    12:00 +17°C° 0 mm 2 m/s 683 mmHg 38%
    13:00 +17°C° 0 mm 2 m/s 682 mmHg 38%
    14:00 +17°C° 0 mm 2 m/s 682 mmHg 37%
    15:00 +17°C° 0 mm 3 m/s 682 mmHg 36%
    16:00 +16°C° 0 mm 2 m/s 681 mmHg 45%
    17:00 +14°C° 0 mm 2 m/s 681 mmHg 54%
    18:00 +12°C° 0 mm 1 m/s 680 mmHg 63%
    19:00 +11°C° 0 mm 1 m/s 680 mmHg 64%
    20:00 +11°C° 0 mm 1 m/s 680 mmHg 66%
    21:00 +10°C° 0 mm 1 m/s 680 mmHg 67%
    22:00 +10°C° 0 mm 1 m/s 680 mmHg 67%
    23:00 +9°C° 0 mm 1 m/s 680 mmHg 67%
    Voir plus